GPS BIII-3

Last updated on Sat Apr 11 2026 00:02:39 GMT+0000 (Coordinated Universal Time)

1 45854U 20041A 26099.20570971 -.00000069 00000+0 00000+0 0 9994 2 45854 56.6281 31.6208 0061839 205.0489 354.0727 2.00560261 42658
UTC large
Height (km)
Speed (km/s)
/
Latitude / Longitude
Inclination (degrees)
Orbital Period (minutes)
Azimuth
Elevation
Range (km)
Doppler Factor

Next 0 passes for location: London (51.5072 / 0.1276)

Sorry there are no passes over London.